Terug naar catalogus

USA 468

ActiefMilitairVLEO
NORAD 62537·PAYLOAD·🇺🇸 United States

Gelanceerd Jan 10, 2025 vanaf Vandenberg Space Force Base

Loading…

Volgende Passages (komende 24 uur)

TLE

VerouderdSource: Mike McCants

Epoch: Aug 23, 2026, 20:23 UTC

1 62537U 25005F   26235.84938154 0.00000000  00000-0  00000-0 0    08
2 62537  70.0200 246.9523 0003000 286.2416  73.7584 14.96713364    05

Volg USA 468 in realtime met AllMySat

Download on the App Store